Hourly Data Report for October 04, 2017

All times are specified in Local Standard Time (LST). Add 1 hour to adjust for Daylight Saving Time where and when it is observed.

SPRAGUE
MANITOBA

49°01'25.000" N
95°35'54.009" W
328.80 m
5022759
71449
WSU

Download Data

Hourly Data (October 2017)
Hourly Data Report for October 4, 2017
Temp Definition
°C
Dew Point Temp Definition
°C
Rel Hum Definition
%
Wind Dir Definition
10's deg

Wind Spd Definition
km/h
Visibility Definition
km
Stn Press Definition
kPa
Hmdx Definition


Wind Chill Definition


Weather Definition


TIME
00:00 8.7 4.9 77 24 7   98.09     LegendNANA
01:00 8.5 4.8 78 24 9   98.07     LegendNANA
02:00 8.1 4.3 77 25 11   98.13     LegendNANA
03:00 7.7 4.1 78 26 12   98.17     LegendNANA
04:00 7.2 3.3 76 27 11   98.21     LegendNANA
05:00 7.0 2.7 74 26 10   98.25     LegendNANA
06:00 6.5 2.7 77 25 9   98.28     LegendNANA
07:00 6.2 3.0 79 24 9   98.28     LegendNANA
08:00 7.2 4.0 81 25 12   98.33     LegendNANA
09:00 7.9 4.7 80 24 14   98.35     LegendNANA
10:00 9.0 4.7 75 26 21   98.34     LegendNANA
11:00 9.6 3.9 68 26 19   98.33     LegendNANA
12:00 10.0 4.7 69 26 23   98.31     LegendNANA
13:00 10.2 4.1 66 26 23   98.24     LegendNANA
14:00 11.6 4.4 61 25 18   98.16     LegendNANA
15:00 11.5 3.9 59 24 21   98.12     LegendNANA
16:00 10.8 3.8 62 25 20   98.08     LegendNANA
17:00 10.1 3.6 64 25 17   98.07     LegendNANA
18:00 8.7 3.7 71 25 9   98.04     LegendNANA
19:00 6.7 3.6 81 24 5   98.07     LegendNANA
20:00 5.3 3.2 86 19 4   98.04     LegendNANA
21:00 4.8 3.5 91 23 6   98.06     LegendNANA
22:00 4.9 3.0 88 24 9   98.02     LegendNANA
23:00 4.4 2.6 88 25 9   98.01     LegendNANA

Notes on Data Quality.

Legend

  • E = Estimated
  • M = Missing
  • NA = Not Available
  • ‡ = Partner data that is not subject to review by the National Climate Archives
Date modified: